| time (UTC) | temp F | wind direction | speed MPH | gust MPH | rain 1hr in | rain 24hr in | rain mn in | humidity % | barometer mb |
| 20260506195516 | 56 | 33 | 0.0 | 2.0 | 0.00 | 0.07 | 0.07 | 83 | 1015.1 |
| 20260506194516 | 56 | 35 | 2.0 | 6.0 | 0.00 | 0.07 | 0.07 | 82 | 1015.1 |
| 20260506193516 | 56 | 36 | 2.0 | 4.0 | 0.00 | 0.07 | 0.07 | 82 | 1015.1 |
| 20260506192518 | 56 | 59 | 3.0 | 5.0 | 0.00 | 0.07 | 0.07 | 81 | 1014.9 |
| 20260506191516 | 56 | 48 | 1.0 | 4.0 | 0.00 | 0.07 | 0.07 | 81 | 1015.4 |
| 20260506190516 | 56 | 43 | 1.0 | 3.0 | 0.00 | 0.07 | 0.07 | 79 | 1016.1 |
| 20260506185516 | 56 | 60 | 1.0 | 4.0 | 0.00 | 0.07 | 0.07 | 79 | 1016.2 |
| 20260506184536 | 56 | 23 | 1.0 | 4.0 | 0.00 | 0.07 | 0.07 | 80 | 1016.2 |
| 20260506183536 | 55 | 11 | 2.0 | 4.0 | 0.00 | 0.07 | 0.07 | 81 | 1016.1 |
| 20260506182516 | 55 | 36 | 2.0 | 3.0 | 0.00 | 0.07 | 0.07 | 82 | 1015.9 |
| 20260506181518 | 55 | 27 | 2.0 | 4.0 | 0.00 | 0.07 | 0.07 | 80 | 1016.1 |
| 20260506180518 | 55 | 34 | 2.0 | 5.0 | 0.00 | 0.07 | 0.07 | 78 | 1016.0 |
| 20260506175516 | 56 | 16 | 2.0 | 4.0 | 0.00 | 0.07 | 0.07 | 76 | 1016.4 |
| 20260506174516 | 56 | 25 | 2.0 | 5.0 | 0.00 | 0.07 | 0.07 | 75 | 1016.2 |
| 20260506173516 | 56 | 5 | 2.0 | 10.0 | 0.00 | 0.07 | 0.07 | 73 | 1016.3 |
| 20260506172516 | 56 | 18 | 4.0 | 9.0 | 0.00 | 0.07 | 0.07 | 73 | 1016.1 |
| 20260506171536 | 55 | 18 | 3.0 | 5.0 | 0.00 | 0.07 | 0.07 | 76 | 1016.0 |
| 20260506170516 | 55 | 8 | 4.0 | 6.0 | 0.00 | 0.07 | 0.07 | 73 | 1016.5 |
| 20260506165516 | 55 | 56 | 4.0 | 8.0 | 0.00 | 0.07 | 0.07 | 71 | 1016.5 |
| 20260506164516 | 56 | 27 | 4.0 | 10.0 | 0.00 | 0.07 | 0.07 | 71 | 1016.6 |
| 20260506163516 | 57 | 38 | 4.0 | 6.0 | 0.00 | 0.07 | 0.07 | 71 | 1016.4 |
| 20260506162516 | 56 | 54 | 4.0 | 10.0 | 0.00 | 0.07 | 0.07 | 72 | 1016.0 |
| 20260506161516 | 55 | 31 | 4.0 | 7.0 | 0.00 | 0.07 | 0.07 | 73 | 1015.9 |
| 20260506160516 | 55 | 7 | 4.0 | 9.0 | 0.00 | 0.07 | 0.07 | 73 | 1015.9 |
| 20260506155516 | 55 | 53 | 4.0 | 9.0 | 0.00 | 0.07 | 0.07 | 73 | 1015.5 |
| 20260506154515 | 55 | 59 | 4.0 | 8.0 | 0.00 | 0.07 | 0.07 | 74 | 1015.5 |
| 20260506153516 | 55 | 62 | 4.0 | 9.0 | 0.00 | 0.07 | 0.07 | 74 | 1015.5 |
| 20260506152516 | 55 | 41 | 5.0 | 11.0 | 0.00 | 0.07 | 0.07 | 74 | 1015.5 |
| 20260506151516 | 55 | 60 | 6.0 | 10.0 | 0.00 | 0.07 | 0.07 | 76 | 1015.5 |
| 20260506150516 | 54 | 30 | 3.0 | 7.0 | 0.00 | 0.07 | 0.07 | 79 | 1015.4 |
| 20260506145516 | 54 | 51 | 3.0 | 5.0 | 0.00 | 0.07 | 0.07 | 80 | 1016.2 |
| 20260506144516 | 53 | 30 | 2.0 | 5.0 | 0.00 | 0.07 | 0.07 | 81 | 1016.2 |
| 20260506143516 | 53 | 66 | 2.0 | 6.0 | 0.00 | 0.07 | 0.07 | 80 | 1016.1 |
| 20260506142516 | 53 | 1 | 3.0 | 6.0 | 0.00 | 0.07 | 0.07 | 83 | 1015.7 |
| 20260506141516 | 53 | 35 | 3.0 | 5.0 | 0.00 | 0.07 | 0.07 | 83 | 1015.1 |
| 20260506140516 | 52 | 22 | 2.0 | 5.0 | 0.00 | 0.07 | 0.07 | 86 | 1015.4 |
| 20260506135516 | 52 | 23 | 2.0 | 5.0 | 0.00 | 0.07 | 0.07 | 88 | 1015.0 |
| 20260506134516 | 52 | 35 | 2.0 | 4.0 | 0.00 | 0.07 | 0.07 | 88 | 1015.3 |
| 20260506133516 | 52 | 36 | 2.0 | 4.0 | 0.00 | 0.07 | 0.07 | 87 | 1015.3 |
| 20260506132516 | 52 | 49 | 1.0 | 4.0 | 0.00 | 0.07 | 0.07 | 87 | 1015.4 |
| 20260506131536 | 52 | 57 | 2.0 | 5.0 | 0.00 | 0.07 | 0.07 | 88 | 1015.3 |
| 20260506130516 | 51 | 43 | 2.0 | 5.0 | 0.00 | 0.07 | 0.07 | 88 | 1015.3 |
| 20260506125515 | 51 | 61 | 3.0 | 8.0 | 0.00 | 0.07 | 0.07 | 89 | 1014.8 |
| 20260506124516 | 51 | 30 | 2.0 | 5.0 | 0.00 | 0.07 | 0.07 | 90 | 1015.0 |
| 20260506123516 | 51 | 35 | 1.0 | 4.0 | 0.00 | 0.07 | 0.07 | 90 | 1014.9 |
| 20260506122516 | 51 | 0 | 3.0 | 5.0 | 0.00 | 0.07 | 0.07 | 90 | 1014.6 |
| 20260506121516 | 51 | 26 | 1.0 | 2.0 | 0.00 | 0.07 | 0.07 | 91 | 1014.6 |
| 20260506120516 | 51 | 26 | 1.0 | 2.0 | 0.00 | 0.07 | 0.07 | 91 | 1014.1 |
| 20260506115516 | 51 | 35 | 1.0 | 2.0 | 0.00 | 0.07 | 0.07 | 91 | 1013.7 |
| 20260506114516 | 51 | 64 | 1.0 | 3.0 | 0.00 | 0.07 | 0.07 | 89 | 1013.4 |
| 20260506113516 | 51 | 63 | 1.0 | 4.0 | 0.00 | 0.07 | 0.07 | 90 | 1012.9 |
| 20260506112516 | 51 | 41 | 1.0 | 4.0 | 0.00 | 0.07 | 0.07 | 91 | 1012.6 |
| 20260506111536 | 51 | 52 | 2.0 | 4.0 | 0.00 | 0.07 | 0.07 | 91 | 1012.4 |
| 20260506110516 | 51 | 57 | 1.0 | 3.0 | 0.00 | 0.07 | 0.07 | 91 | 1012.3 |
| 20260506105516 | 51 | 54 | 2.0 | 6.0 | 0.00 | 0.07 | 0.07 | 91 | 1012.2 |
| 20260506104516 | 52 | 64 | 3.0 | 7.0 | 0.00 | 0.07 | 0.07 | 90 | 1012.1 |
| 20260506103516 | 52 | 69 | 3.0 | 7.0 | 0.00 | 0.07 | 0.07 | 91 | 1012.1 |
| 20260506102516 | 52 | 30 | 3.0 | 9.0 | 0.00 | 0.07 | 0.07 | 92 | 1011.9 |
| 20260506101516 | 52 | 53 | 3.0 | 6.0 | 0.00 | 0.07 | 0.07 | 92 | 1011.6 |
| 20260506100516 | 52 | 57 | 1.0 | 2.0 | 0.00 | 0.07 | 0.07 | 93 | 1011.5 |
| 20260506095516 | 52 | 60 | 2.0 | 4.0 | 0.00 | 0.07 | 0.07 | 93 | 1011.2 |
| 20260506094516 | 52 | 63 | 2.0 | 3.0 | 0.00 | 0.07 | 0.07 | 92 | 1011.0 |
| 20260506093516 | 53 | 73 | 2.0 | 5.0 | 0.00 | 0.07 | 0.07 | 92 | 1010.8 |
| 20260506092516 | 53 | 65 | 3.0 | 7.0 | 0.00 | 0.07 | 0.07 | 93 | 1010.5 |
| 20260506091516 | 53 | 63 | 2.0 | 4.0 | 0.00 | 0.07 | 0.07 | 94 | 1010.4 |
| 20260506090536 | 53 | 52 | 1.0 | 5.0 | 0.00 | 0.07 | 0.07 | 93 | 1010.3 |
| 20260506085516 | 53 | 51 | 1.0 | 3.0 | 0.01 | 0.07 | 0.07 | 93 | 1010.4 |
| 20260506084516 | 53 | 36 | 3.0 | 5.0 | 0.02 | 0.07 | 0.07 | 93 | 1009.9 |
| 20260506084019 | 53 | 40 | 3.0 | 6.0 | 0.02 | 0.07 | 0.07 | 92 | 1009.7 |
| 20260506083016 | 53 | 28 | 2.0 | 6.0 | 0.03 | 0.07 | 0.07 | 93 | 1010.0 |
| 20260506082039 | 53 | 27 | 4.0 | 9.0 | 0.05 | 0.07 | 0.07 | 93 | 1010.1 |
| 20260506081018 | 54 | 346 | 3.0 | 8.0 | 0.06 | 0.07 | 0.07 | 93 | 1010.2 |
| 20260506073018 | 55 | 8 | 5.0 | 8.0 | 0.04 | 0.04 | 0.04 | 90 | 1008.9 |
| 20260506072018 | 56 | 32 | 4.0 | 11.0 | 0.02 | 0.02 | 0.02 | 89 | 1008.7 |
| 20260506071016 | 57 | 27 | 4.0 | 8.0 | 0.01 | 0.01 | 0.01 | 88 | 1008.9 |
| 20260506062016 | 61 | 11 | 4.0 | 9.0 | 0.00 | 0.00 | 0.00 | 83 | 1008.4 |
| 20260506061036 | 62 | 348 | 3.0 | 6.0 | 0.00 | 0.00 | 0.00 | 83 | 1008.4 |
| 20260506051016 | 65 | 291 | 4.0 | 8.0 | 0.00 | 0.00 | 0.00 | 83 | 1008.0 |
| 20260506045036 | 66 | 298 | 7.0 | 14.0 | 0.00 | 0.00 | 0.00 | 83 | 1007.7 |
| 20260506044016 | 66 | 288 | 7.0 | 12.0 | 0.00 | 0.00 | 0.00 | 84 | 1007.3 |
| 20260506043016 | 67 | 296 | 9.0 | 14.0 | 0.00 | 0.00 | 0.00 | 83 | 1007.1 |
| 20260506042016 | 67 | 284 | 9.0 | 15.0 | 0.00 | 0.00 | 0.00 | 83 | 1006.9 |
| 20260506041016 | 68 | 273 | 9.0 | 16.0 | 0.00 | 0.00 | 0.00 | 83 | 1006.7 |
| 20260506040016 | 68 | 277 | 10.0 | 15.0 | 0.00 | 0.00 | 0.00 | 83 | 1006.5 |
| 20260506035016 | 69 | 279 | 7.0 | 13.0 | 0.00 | 0.00 | 0.00 | 84 | 1006.3 |
| 20260506034016 | 69 | 288 | 5.0 | 9.0 | 0.00 | 0.00 | 0.00 | 85 | 1006.0 |
| 20260506033016 | 70 | 272 | 6.0 | 16.0 | 0.00 | 0.00 | 0.00 | 84 | 1005.9 |
| 20260506032016 | 71 | 274 | 8.0 | 15.0 | 0.00 | 0.00 | 0.00 | 83 | 1005.9 |
| 20260506031016 | 72 | 270 | 7.0 | 14.0 | 0.00 | 0.00 | 0.00 | 86 | 1005.8 |
| 20260506030016 | 71 | 283 | 2.0 | 11.0 | 0.00 | 0.00 | 0.00 | 92 | 1005.3 |
| 20260506025016 | 71 | 340 | 1.0 | 2.0 | 0.00 | 0.00 | 0.00 | 91 | 1005.0 |
| 20260506024016 | 71 | 340 | 0.0 | 2.0 | 0.00 | 0.00 | 0.00 | 92 | 1004.9 |
| 20260506023016 | 71 | 297 | 2.0 | 3.0 | 0.00 | 0.00 | 0.00 | 92 | 1004.8 |
| 20260506022016 | 71 | 344 | 0.0 | 2.0 | 0.00 | 0.00 | 0.00 | 92 | 1004.6 |
| 20260506021015 | 71 | 341 | 1.0 | 2.0 | 0.00 | 0.00 | 0.00 | 91 | 1004.6 |
| 20260506020036 | 72 | 45 | 1.0 | 2.0 | 0.00 | 0.00 | 0.00 | 90 | 1004.4 |
| 20260506015015 | 72 | 0.0 | 1.0 | 0.00 | 0.00 | 0.00 | 90 | 1004.5 | |
| 20260506014036 | 72 | 50 | 0.0 | 1.0 | 0.00 | 0.00 | 0.00 | 90 | 1004.1 |
| 20260506013016 | 72 | 58 | 0.0 | 1.0 | 0.00 | 0.00 | 0.00 | 89 | 1004.3 |
| 20260506012016 | 72 | 58 | 0.0 | 1.0 | 0.00 | 0.00 | 0.00 | 89 | 1004.3 |
| 20260506011016 | 73 | 162 | 0.0 | 1.0 | 0.00 | 0.00 | 0.00 | 88 | 1004.2 |
| 20260506010016 | 73 | 163 | 0.0 | 1.0 | 0.00 | 0.00 | 0.00 | 87 | 1004.3 |
| 20260506005016 | 73 | 139 | 1.0 | 2.0 | 0.00 | 0.00 | 0.00 | 87 | 1004.2 |
| 20260506004016 | 74 | 159 | 1.0 | 3.0 | 0.00 | 0.00 | 0.00 | 86 | 1004.2 |
| 20260506003016 | 74 | 0.0 | 0.0 | 0.00 | 0.00 | 0.00 | 86 | 1003.9 | |
| 20260506002016 | 74 | 173 | 0.0 | 1.0 | 0.00 | 0.00 | 0.00 | 85 | 1003.8 |
| 20260506001016 | 75 | 173 | 0.0 | 1.0 | 0.00 | 0.00 | 0.00 | 85 | 1003.8 |
| 20260506000036 | 75 | 173 | 0.0 | 2.0 | 0.00 | 0.00 | 0.00 | 84 | 1003.6 |
| 20260505235016 | 75 | 162 | 1.0 | 3.0 | 0.00 | 0.00 | 0.00 | 84 | 1003.8 |
| 20260505234016 | 75 | 139 | 2.0 | 4.0 | 0.00 | 0.00 | 0.00 | 83 | 1003.6 |
| 20260505233016 | 76 | 124 | 0.0 | 2.0 | 0.00 | 0.00 | 0.00 | 84 | 1003.8 |
| 20260505232016 | 76 | 56 | 0.0 | 3.0 | 0.00 | 0.00 | 0.00 | 84 | 1003.7 |
| 20260505231016 | 76 | 59 | 1.0 | 3.0 | 0.00 | 0.00 | 0.00 | 83 | 1003.6 |
| 20260505230016 | 76 | 74 | 1.0 | 4.0 | 0.00 | 0.00 | 0.00 | 82 | 1003.3 |
| 20260505225016 | 76 | 57 | 2.0 | 3.0 | 0.00 | 0.00 | 0.00 | 82 | 1003.6 |
| 20260505224016 | 75 | 83 | 1.0 | 2.0 | 0.00 | 0.00 | 0.00 | 83 | 1003.8 |
| 20260505223036 | 76 | 73 | 0.0 | 2.0 | 0.00 | 0.00 | 0.00 | 82 | 1004.2 |
| 20260505222016 | 76 | 138 | 0.0 | 2.0 | 0.00 | 0.00 | 0.00 | 80 | 1004.0 |
| 20260505221016 | 76 | 178 | 0.0 | 3.0 | 0.00 | 0.00 | 0.00 | 82 | 1003.7 |
| 20260505220016 | 76 | 145 | 1.0 | 3.0 | 0.00 | 0.00 | 0.00 | 80 | 1003.7 |
| 20260505215016 | 76 | 126 | 1.0 | 3.0 | 0.00 | 0.00 | 0.00 | 81 | 1003.5 |
| 20260505214016 | 76 | 164 | 2.0 | 5.0 | 0.00 | 0.00 | 0.00 | 81 | 1004.0 |
| 20260505213016 | 76 | 153 | 1.0 | 5.0 | 0.00 | 0.00 | 0.00 | 82 | 1004.0 |
| 20260505212016 | 76 | 134 | 2.0 | 5.0 | 0.00 | 0.00 | 0.00 | 81 | 1004.0 |
| 20260505211016 | 76 | 172 | 1.0 | 3.0 | 0.00 | 0.00 | 0.00 | 81 | 1004.2 |
| 20260505210016 | 75 | 112 | 1.0 | 3.0 | 0.00 | 0.00 | 0.00 | 82 | 1004.2 |
| 20260505205016 | 74 | 175 | 1.0 | 6.0 | 0.00 | 0.00 | 0.00 | 83 | 1004.3 |
| 20260505204016 | 74 | 179 | 2.0 | 5.0 | 0.00 | 0.00 | 0.00 | 82 | 1004.5 |
| 20260505203016 | 74 | 154 | 2.0 | 5.0 | 0.00 | 0.00 | 0.00 | 83 | 1004.5 |
| 20260505202016 | 74 | 165 | 3.0 | 9.0 | 0.00 | 0.00 | 0.00 | 83 | 1004.7 |
| 20260505201016 | 73 | 167 | 4.0 | 8.0 | 0.00 | 0.00 | 0.00 | 83 | 1004.9 |
| 20260505200018 | 73 | 174 | 3.0 | 6.0 | 0.00 | 0.00 | 0.00 | 84 | 1004.8 |